Regional Weather Roundup
Issued by NWS

Home | Current Version | Previous Version | Text Only | Print | Product List | Glossary On
Versions: 1 2 3 4 5 6 7 8 9 10 11 12 13 14 15 16 17 18 19 20 21 22 23 24 25 26 27 28 29 30 31 32 33 34 35 36 37 38 39 40 41 42 43 44 45 46 47 48 49 50
924
ASUS43 KDTX 250710
RWRMI
MICHIGAN HOURLY REGIONAL WEATHER ROUNDUP
NATIONAL WEATHER SERVICE DETROIT/PONTIAC MI
300 AM EDT WED MAY 25 2016

NOTE: "FAIR" INDICATES FEW OR NO CLOUDS BELOW 12,000 FEET WITH NO
SIGNIFICANT WEATHER AND/OR OBSTRUCTION TO VISIBILITY.

MIZ047>049-052>055-059>063-066>070-074>076-081>083-250800-
SOUTHEAST LOWER MICHIGAN

CITY           SKY/WX    TMP DP  RH WIND       PRES   REMARKS
ADRIAN         CLEAR     63  45  51 SW3       30.04S
ALMA           CLOUDY    61  56  83 SW3       29.99S
ANN ARBOR      CLOUDY    54  52  93 SW3       30.03R
BAD AXE        MOCLDY    60  55  83 E3        30.00F
CARO           PTCLDY    62  55  76 CALM      29.99S
DETROIT CITY   CLOUDY    69  44  40 SW8       30.02R
DETROIT        MOCLDY    64  48  56 S5        30.03S
FLINT          PTCLDY    70  49  47 SW6       30.00R
GROSSE ILE     CLEAR     66  46  48 S5        30.02R
HILLSDALE      CLEAR     67  43  41 SW6       30.04S
HOWELL         CLOUDY    67  47  49 SW6       30.02R

CITY           SKY/WX    TMP DP  RH WIND       PRES   REMARKS
JACKSON        PTCLDY    66  48  52 SW8       30.03R
LAMBERTVILLE   CLEAR     66  44  45 SW5       30.04R
LANSING        CLOUDY    67  51  56 SW7       30.01S
LAPEER         MOCLDY    59  54  83 CALM      30.02R
MASON          CLOUDY    67  49  53 S3        30.01S
MONROE         CLEAR     64  46  52 SW5       30.02S
MT. CLEMENS    PTCLDY    68  49  50 SW7       30.00S
PONTIAC        CLOUDY    68  48  48 SW5       30.01S
PORT HOPE        N/A     59  55  87 SW3       29.99F
PORT HURON     PTCLDY    55  52  88 CALM      30.01R
TRI CITIES     CLOUDY    69  56  62 S3        29.98F
MIDLAND        FAIR      63  61  93 CALM      29.98R
TROY           PTCLDY    69  49  48 SW7       30.03S
SAGINAW HB     CLOUDY    63  54  72 S5        29.99S
$$
MIZ043>046-050>051-056>058-064>065-071>073-077>080-250800-
SOUTHWEST LOWER MICHIGAN

CITY           SKY/WX    TMP DP  RH WIND       PRES   REMARKS
BATTLE CREEK   CLOUDY    64  51  62 S8        30.02S
BENTON HARBOR  CLOUDY    70  54  56 S5        30.00R
BIG RAPIDS     CLOUDY    62  60  96 CALM      29.98R FOG
COLDWATER      CLOUDY    65  49  56 SW5       30.03S
FREMONT        MOCLDY    65  56  74 CALM      29.98R
HOLLAND        MOCLDY    67  55  65 SW6       30.00R
GRAND RAPIDS   CLOUDY    70  52  52 S5        30.00R
IONIA          FAIR      67  50  55 W5        30.00R
KALAMAZOO      PTCLDY    63  52  67 S6        30.01S
LUDINGTON      CLEAR     54  54 100 CALM      29.97R
MARSHALL       CLOUDY    67  50  53 S3        30.02S
MOUNT PLEASANT PTCLDY    63  61  93 CALM      29.98S
MUSKEGON       CLOUDY    66  50  56 S3        29.98R
SOUTH HAVEN    MOCLDY    70  55  58 SW5       29.99S
$$
MIZ016>042-250800-
NORTHERN LOWER MICHIGAN

CITY           SKY/WX    TMP DP  RH WIND       PRES   REMARKS
ALPENA         CLEAR     56  52  86 CALM      29.99R
BEAVER ISLAND  CLOUDY    52  52  99 CALM      29.98F FOG
BELLAIRE       FOG       52  51  96 CALM      29.98S VSB 1/2
CADILLAC       CLEAR     57  52  85 NW3       29.98S
CHARLEVOIX       N/A     52  52 100 CALM      30.01S FOG
FRANKFORT      CLEAR     58  53  83 CALM      29.96S
GAYLORD        CLEAR     56  54  93 CALM      29.99S FOG
GRAYLING       PTCLDY    53  49  86 CALM      30.00S
HARBOR SPRINGS FOG       52  52  98 CALM      29.98S VSB 1/2
HOUGHTON LAKE  CLEAR     56  52  86 E3        29.99S
MANISTEE       CLEAR     55  50  82 CALM      29.98R
OSCODA         CLOUDY    61  49  64 SE3       29.98S
PELLSTON       MOCLDY    53  52  96 N3        29.99S FOG
ROGERS CITY    CLEAR     55  53  91 SW5       29.98S
TRAVERSE CITY  PTCLDY    56  51  84 CALM      29.97S
$$
MIZ007>008-015-250800-
EASTERN UPPER MICHIGAN

CITY           SKY/WX    TMP DP  RH WIND       PRES   REMARKS
KINROSS          N/A     54  54 100 N5        29.99R VSB 1/4
MACKINAC ISLAN CLOUDY    56  56 100 NW3       29.99R FOG
NEWBERRY       FOG       53  52  97 NW3       30.00R VSB 1/2
S. S. MARIE    CLEAR     53  51  93 CALM      29.98S FOG
MUNISING         N/A     47  46  97 N8        30.02S
$$
MIZ004>006-011>014-085-250800-
CENTRAL UPPER MICHIGAN

CITY           SKY/WX    TMP DP  RH WIND       PRES   REMARKS
MANISTIQUE     CLOUDY    55  54  97 N9        29.99R FOG
ESCANABA       CLOUDY    55  54  94 N7        29.99S
MENOMINEE      PTCLDY    57  55  94 NE6       29.99R
SAWYER-GWINN   FOG       47  46  97 NE6       30.03F VSB 1
$$
MIZ001>003-009>011-084-250800-
WESTERN UPPER MICHIGAN

CITY           SKY/WX    TMP DP  RH WIND       PRES   REMARKS
IRON MOUNTAIN  CLOUDY    58  57  97 NE6       29.99S FOG
HOUGHTON       FOG       49  47  93 E7        30.03S VSB 1/4
COPPER HARBOR    N/A     47  46  97 CALM      30.03F
IRONWOOD       CLOUDY    52  52 100 CALM      29.98F VSB 3/4
$$

ABBREVIATIONS USED IN REMARKS
   TC - TEMPERATURE IN CELSIUS
  WCI - WIND CHILL INDEX
   HX - HEAT INDEX
  VSB - VISIBILITY





USA.gov is the U.S. government's official web portal to all federal, state and local government web resources and services.